When you browse on this site, cookies collect data to enhance your experience and personalize the content and advertising you see.
Visit our Privacy Policy to learn more. By continuing to use the site, you agree to this use of cookies and data.
  • In Belgien
  • Länderverzeichnis
  • Für 7 Tage
  • Wassertemperatur
  • Satellitenkarten
  • Wetterkarte
  • Widgets
  • user-avatar
    Anmelden

    Stündliche Wetter Kawarna

    Heute, 18 Juni, Dienstag

    Zeit Temperatur Niederschläge Wind Luftdruck Luftfeuchtigkeit
    00:00 +21°C° 0 mm 4 m/S 758 mmHg 82%
    01:00 +21°C° 0 mm 5 m/S 758 mmHg 79%
    02:00 +21°C° 0 mm 6 m/S 758 mmHg 76%
    03:00 +21°C° 0 mm 6 m/S 758 mmHg 75%
    04:00 +21°C° 0 mm 6 m/S 758 mmHg 73%
    05:00 +21°C° 0 mm 6 m/S 758 mmHg 72%
    06:00 +23°C° 0 mm 6 m/S 758 mmHg 69%
    07:00 +24°C° 0 mm 6 m/S 759 mmHg 66%
    08:00 +27°C° 0 mm 6 m/S 759 mmHg 63%
    09:00 +28°C° 0 mm 6 m/S 759 mmHg 58%
    10:00 +29°C° 0 mm 5 m/S 759 mmHg 54%
    11:00 +30°C° 0 mm 5 m/S 759 mmHg 50%
    12:00 +30°C° 0 mm 5 m/S 759 mmHg 49%
    13:00 +30°C° 0 mm 5 m/S 759 mmHg 48%
    14:00 +30°C° 0 mm 5 m/S 759 mmHg 47%
    15:00 +30°C° 0 mm 5 m/S 759 mmHg 48%
    16:00 +29°C° 0 mm 5 m/S 759 mmHg 50%
    17:00 +29°C° 0 mm 5 m/S 758 mmHg 51%
    18:00 +27°C° 0 mm 4 m/S 758 mmHg 60%
    19:00 +25°C° 0 mm 4 m/S 758 mmHg 69%
    20:00 +22°C° 0 mm 3 m/S 758 mmHg 78%
    21:00 +22°C° 0 mm 3 m/S 758 mmHg 80%
    22:00 +21°C° 0 mm 3 m/S 759 mmHg 81%
    23:00 +21°C° 0 mm 3 m/S 759 mmHg 83%

    Morgen, 19 Juni, Mittwoch

    Zeit Temperatur Niederschläge Wind Luftdruck Luftfeuchtigkeit
    00:00 +20°C° 0 mm 3 m/S 759 mmHg 82%
    01:00 +20°C° 0 mm 4 m/S 759 mmHg 81%
    02:00 +20°C° 0 mm 4 m/S 758 mmHg 80%
    03:00 +20°C° 0 mm 4 m/S 758 mmHg 78%
    04:00 +20°C° 0 mm 5 m/S 758 mmHg 75%
    05:00 +20°C° 0 mm 5 m/S 758 mmHg 73%
    06:00 +22°C° 0 mm 5 m/S 758 mmHg 65%
    07:00 +25°C° 0 mm 5 m/S 758 mmHg 58%
    08:00 +27°C° 0 mm 5 m/S 758 mmHg 51%
    09:00 +28°C° 0 mm 4 m/S 758 mmHg 48%
    10:00 +29°C° 0 mm 4 m/S 758 mmHg 46%
    11:00 +30°C° 0 mm 4 m/S 758 mmHg 43%
    12:00 +30°C° 0 mm 4 m/S 758 mmHg 43%
    13:00 +32°C° 0 mm 4 m/S 758 mmHg 42%
    14:00 +32°C° 0 mm 4 m/S 758 mmHg 42%
    15:00 +30°C° 0 mm 3 m/S 757 mmHg 45%
    16:00 +30°C° 0 mm 3 m/S 757 mmHg 48%
    17:00 +29°C° 0 mm 3 m/S 757 mmHg 51%
    18:00 +27°C° 0 mm 3 m/S 757 mmHg 60%
    19:00 +26°C° 0 mm 3 m/S 757 mmHg 69%
    20:00 +24°C° 0 mm 2 m/S 757 mmHg 78%
    21:00 +22°C° 0 mm 3 m/S 757 mmHg 80%
    22:00 +22°C° 0 mm 3 m/S 757 mmHg 83%
    23:00 +21°C° 0 mm 4 m/S 757 mmHg 86%

    übermorgen, 20 Juni, Donnerstag

    Zeit Temperatur Niederschläge Wind Luftdruck Luftfeuchtigkeit
    00:00 +21°C° 0 mm 4 m/S 757 mmHg 86%
    01:00 +21°C° 0 mm 4 m/S 757 mmHg 87%
    02:00 +21°C° 0 mm 3 m/S 757 mmHg 88%
    03:00 +20°C° 0 mm 3 m/S 757 mmHg 88%
    04:00 +20°C° 0 mm 3 m/S 757 mmHg 88%
    05:00 +20°C° 0 mm 3 m/S 757 mmHg 88%
    06:00 +22°C° 0 mm 3 m/S 757 mmHg 79%
    07:00 +25°C° 0 mm 4 m/S 757 mmHg 69%
    08:00 +27°C° 0 mm 4 m/S 757 mmHg 60%
    09:00 +28°C° 0 mm 4 m/S 757 mmHg 57%
    10:00 +29°C° 0 mm 4 m/S 757 mmHg 54%
    11:00 +30°C° 0 mm 4 m/S 757 mmHg 51%
    12:00 +30°C° 0 mm 4 m/S 757 mmHg 50%
    13:00 +30°C° 0 mm 4 m/S 757 mmHg 50%
    14:00 +30°C° 0 mm 4 m/S 757 mmHg 49%
    15:00 +30°C° 0 mm 4 m/S 756 mmHg 52%
    16:00 +29°C° 0 mm 4 m/S 756 mmHg 54%
    17:00 +29°C° 0 mm 4 m/S 756 mmHg 56%
    18:00 +27°C° 0 mm 4 m/S 756 mmHg 64%
    19:00 +26°C° 0 mm 3 m/S 756 mmHg 73%
    20:00 +24°C° 0 mm 3 m/S 756 mmHg 81%
    21:00 +24°C° 0 mm 3 m/S 757 mmHg 83%
    22:00 +24°C° 0 mm 3 m/S 757 mmHg 86%
    23:00 +23°C° 0 mm 2 m/S 757 mmHg 89%

    21 Juni, Freitag

    Zeit Temperatur Niederschläge Wind Luftdruck Luftfeuchtigkeit
    00:00 +23°C° 0 mm 2 m/S 757 mmHg 89%
    01:00 +23°C° 0 mm 2 m/S 757 mmHg 89%
    02:00 +23°C° 0 mm 2 m/S 757 mmHg 90%
    03:00 +21°C° 0 mm 3 m/S 757 mmHg 89%
    04:00 +21°C° 0 mm 4 m/S 757 mmHg 88%
    05:00 +21°C° 0 mm 5 m/S 757 mmHg 86%
    06:00 +23°C° 0 mm 5 m/S 757 mmHg 79%
    07:00 +26°C° 0 mm 5 m/S 757 mmHg 71%
    08:00 +28°C° 0 mm 5 m/S 758 mmHg 64%
    09:00 +29°C° 0 mm 5 m/S 758 mmHg 59%
    10:00 +30°C° 0 mm 5 m/S 758 mmHg 55%
    11:00 +32°C° 0 mm 4 m/S 758 mmHg 51%
    12:00 +32°C° 0 mm 5 m/S 758 mmHg 51%
    13:00 +33°C° 0 mm 5 m/S 758 mmHg 51%
    14:00 +33°C° 0 mm 5 m/S 758 mmHg 50%
    15:00 +32°C° 0 mm 5 m/S 757 mmHg 53%
    16:00 +32°C° 0 mm 5 m/S 757 mmHg 56%
    17:00 +30°C° 0 mm 5 m/S 757 mmHg 59%
    18:00 +29°C° 0 mm 4 m/S 757 mmHg 66%
    19:00 +27°C° 0 mm 3 m/S 757 mmHg 73%
    20:00 +26°C° 0 mm 2 m/S 757 mmHg 80%
    21:00 +25°C° 0 mm 3 m/S 757 mmHg 79%
    22:00 +25°C° 0 mm 4 m/S 757 mmHg 79%
    23:00 +23°C° 0 mm 4 m/S 757 mmHg 78%

    22 Juni, Samstag

    Zeit Temperatur Niederschläge Wind Luftdruck Luftfeuchtigkeit
    00:00 +23°C° 0 mm 5 m/S 757 mmHg 78%
    01:00 +23°C° 0 mm 5 m/S 757 mmHg 78%
    02:00 +23°C° 0 mm 6 m/S 757 mmHg 77%
    03:00 +23°C° 0 mm 6 m/S 757 mmHg 77%
    04:00 +23°C° 0 mm 6 m/S 757 mmHg 77%
    05:00 +22°C° 0 mm 6 m/S 757 mmHg 76%
    06:00 +24°C° 0 mm 6 m/S 757 mmHg 71%
    07:00 +27°C° 0 mm 5 m/S 758 mmHg 66%
    08:00 +29°C° 0 mm 5 m/S 758 mmHg 61%
    09:00 +30°C° 0 mm 5 m/S 758 mmHg 55%
    10:00 +32°C° 0 mm 4 m/S 758 mmHg 50%
    11:00 +34°C° 0 mm 4 m/S 758 mmHg 44%
    12:00 +34°C° 0 mm 4 m/S 758 mmHg 44%
    13:00 +34°C° 0 mm 4 m/S 758 mmHg 43%
    14:00 +34°C° 0 mm 3 m/S 758 mmHg 43%
    15:00 +32°C° 0.1 mm 4 m/S 758 mmHg 51%
    16:00 +29°C° 0.1 mm 4 m/S 758 mmHg 58%
    17:00 +27°C° 0.1 mm 4 m/S 758 mmHg 66%
    18:00 +26°C° 0 mm 5 m/S 758 mmHg 67%
    19:00 +25°C° 0 mm 5 m/S 758 mmHg 68%
    20:00 +23°C° 0 mm 6 m/S 758 mmHg 69%
    21:00 +23°C° 0 mm 5 m/S 758 mmHg 68%
    22:00 +25°C° 0 mm 4 m/S 759 mmHg 67%
    23:00 +25°C° 0 mm 3 m/S 759 mmHg 66%

    23 Juni, Sonntag

    Zeit Temperatur Niederschläge Wind Luftdruck Luftfeuchtigkeit
    00:00 +24°C° 0 mm 3 m/S 759 mmHg 67%
    01:00 +24°C° 0 mm 3 m/S 758 mmHg 68%
    02:00 +24°C° 0 mm 3 m/S 758 mmHg 70%
    03:00 +22°C° 0 mm 3 m/S 758 mmHg 70%
    04:00 +22°C° 0 mm 3 m/S 758 mmHg 70%
    05:00 +22°C° 0 mm 3 m/S 758 mmHg 70%
    06:00 +25°C° 0 mm 3 m/S 758 mmHg 65%
    07:00 +27°C° 0 mm 3 m/S 759 mmHg 60%
    08:00 +29°C° 0 mm 3 m/S 759 mmHg 55%
    09:00 +30°C° 0 mm 2 m/S 759 mmHg 51%
    10:00 +31°C° 0 mm 2 m/S 759 mmHg 47%
    11:00 +33°C° 0 mm 1 m/S 759 mmHg 43%
    12:00 +34°C° 0 mm 2 m/S 759 mmHg 43%
    13:00 +34°C° 0 mm 2 m/S 759 mmHg 43%
    14:00 +34°C° 0 mm 2 m/S 758 mmHg 44%
    15:00 +32°C° 0 mm 2 m/S 758 mmHg 45%
    16:00 +32°C° 0 mm 2 m/S 758 mmHg 47%
    17:00 +31°C° 0 mm 1 m/S 758 mmHg 48%
    18:00 +30°C° 0 mm 1 m/S 758 mmHg 55%
    19:00 +28°C° 0 mm 1 m/S 758 mmHg 61%
    20:00 +24°C° 0 mm 0 m/S 758 mmHg 68%
    21:00 +24°C° 0 mm 0 m/S 758 mmHg 67%
    22:00 +25°C° 0 mm 1 m/S 758 mmHg 67%
    23:00 +25°C° 0 mm 1 m/S 759 mmHg 66%
    Mehr zeigen